Vertical_Velocity
-1 -1 -1 -1 -5 -1 1 4 -5 -1 -1 1 -0 -2 -5 -4 0 2 1 -2 -1 8 1 3 -4 5 -3 0 1 2 -1 -5 -1 -1 -2 5 -4 0 -0 -3 -2 1 -1 1
-3 -4 -3 -1 0 1 -5 4 5 -1 2 4 0 -0 -2 -3 -4 -0 2 -0 -3 -4 1 2 -3 -4 2 -1 -2 -0 0 2 -4 1 -0 2 -0 -1 -3 -2 0 -3 -1 1
-5 -3 -3 -3 2 -2 1 -4 2 1 2 -0 5 -1 -1 2 1 2 1 -3 -2 -2 -1 -1 -6 -2 -1 0 -2 -1 1 -1 -0 -3 0 -0 -4 -2 2 0 0 -1 -2 -2
-4 -3 -4 -1 -3 -3 -1 1 1 0 -3 0 -1 -1 -1 3 4 1 1 -2 -0 7 2 -0 -0 -2 -0 -2 -0 1 -1 -2 0 -1 -1 -1 0 1 2 -4 -1 -3 -0 2
-4 3 -3 3 0 2 -1 0 -1 -0 0 2 3 -1 2 -1 -1 0 1 -0 0 -3 13 12 5 -0 1 2 2 -0 -1 -2 -0 -2 0 0 -1 -2 1 -0 -2 1 -2 -4
-6 -0 1 -1 -3 -6 2 0 4 2 2 1 3 2 -4 0 1 -1 1 -2 -1 1 -3 -2 -0 1 -2 -4 -0 2 -1 -2 -1 4 -1 -2 -6 -2 -2 -1 -3 4 -12 -3
-5 -3 -2 -3 -2 -4 -1 1 -1 1 -2 3 1 1 1 -0 1 -1 -0 1 -1 -1 1 1 1 0 1 -1 -0 -0 -0 -0 -0 -1 -1 -2 2 -5 -3 0 7 -1 1 1
-4 -4 -4 -0 -2 -5 3 2 -1 -1 2 2 -3 1 -0 -0 0 1 1 1 -1 -0 -1 -4 -3 -2 -0 -1 -1 1 3 -2 0 -1 1 -7 3 -0 -0 -6 -2 -1 -0 3
-4 -2 -3 1 -3 -7 -4 -1 2 -0 -1 -1 -1 2 3 -1 -4 -2 -2 2 0 -1 1 1 0 -2 -0 -1 -1 0 0 7 2 3 1 0 -2 -1 0 3 -4 0 0 2
-8 -2 -3 1 2 -5 -8 -0 1 3 -4 2 1 1 0 3 -0 -1 -2 -4 -0 0 2 -2 0 -4 3 -1 -2 -6 -0 -0 -3 -0 -0 -7 1 -1 1 1 -0 -1 2 2
-4 -0 -0 -2 -2 -0 2 -6 0 2 1 -1 -0 3 0 3 1 -0 -4 -1 2 1 1 0 -5 -1 -6 -1 2 -4 -5 -4 -4 3 2 -7 -1 2 2 1 -0 -0 1 2
1 -3 -5 -3 -4 -2 -2 -4 -2 1 1 2 -3 -1 -0 2 -1 0 1 2 -1 -2 0 9 7 1 1 3 -1 4 -6 -12 -7 -8 -11 -3 -1 1 -0 1 1 1 1 1
-1 -1 -7 1 -5 1 -5 0 -5 -4 -2 2 4 2 -1 2 2 1 -2 2 3 -2 -1 -1 0 -1 3 -0 -11 9 -3 -0 -3 5 0 -0 -0 -4 2 1 -0 -1 -0 0
-2 0 1 0 -3 -4 2 -4 -2 -2 -1 -2 1 1 -0 2 -1 -0 -0 -3 0 -4 2 0 -3 -1 8 -5 -1 5 13 -1 2 -7 -2 -1 -1 2 -0 1 1 1 2 1
2 -1 2 -2 5 0 5 -3 -2 -5 -2 -2 1 -1 -2 -3 -1 -1 1 -1 0 1 1 2 -2 -4 2 -4 5 -4 -1 2 -9 -2 -0 -4 3 3 -3 -1 -1 -0 0 1
3 0 2 -2 -4 -2 3 -1 -0 -1 1 -3 2 -0 3 1 -0 -0 1 -1 -2 1 0 -2 -2 1 -2 5 -12 -7 -3 4 2 -2 3 -2 -1 0 3 0 0 -1 -1 -2
-1 -1 -0 -2 -5 4 -5 -1 1 3 3 -0 0 -1 -0 0 0 -2 -3 -2 -2 -0 -3 -8 2 -1 3 -4 -1 5 8 6 5 -2 2 -1 -0 -2 2 2 0 -0 -1 -0
-2 0 1 1 -2 0 -5 -0 -2 -0 1 -2 -2 -2 0 -2 -1 -3 1 -1 0 -3 -3 -4 -7 -0 3 -10 -20 1 5 23 1 6 3 1 2 -1 -1 3 -1 -1 -1 -1
-3 3 -0 0 2 -0 -1 -3 -2 -2 1 0 0 -3 -3 -3 -1 -5 -4 2 -3 -5 -5 1 3 2 1 -15 11 -19 20 5 5 4 0 0 0 0 -2 1 -1 -1 0 -1
-4 -2 -3 -1 -2 -2 -2 -5 -5 -2 -0 1 0 -0 -2 1 1 -1 1 -1 -2 -2 4 -0 -1 -14 10 5 -3 -5 29 4 2 2 1 1 -0 1 1 1 -1 -1 -0 -0
4 -6 -3 -5 3 -3 -7 -3 -2 -3 -3 -5 -3 2 -0 -0 -2 2 2 2 3 1 5 -0 5 -6 -11 -16 -12 -4 -0 5 3 5 3 2 1 1 -1 -0 -2 -2 -1 -0
10 -6 -0 -1 -3 -2 -5 -5 -3 0 -1 -1 -4 -4 0 0 2 2 6 3 4 2 3 1 2 18 15 14 7 -1 7 -1 5 4 3 0 1 1 -2 -1 -3 -2 -1 -2
7 -3 -7 -3 -4 -1 -2 -5 -4 -4 -1 -0 -3 -3 -3 -2 -3 2 3 4 1 2 4 3 3 0 2 -0 1 2 -0 0 4 1 1 3 3 1 -1 -3 -4 -4 -4 -2
3 -4 -3 -6 -4 -3 -1 -0 -2 -3 -4 -2 -0 2 -3 -1 -1 3 5 1 0 1 1 3 0 1 -0 0 1 2 2 2 2 1 2 3 2 0 1 -0 -3 1 -1 -1
6 -2 -0 -1 -1 -3 -2 -1 -4 -1 1 -1 -3 -3 -0 1 -1 2 1 1 0 -0 0 2 0 2 0 1 1 2 2 3 3 2 2 -0 2 2 2 -1 -4 -3 0 -5
2 1 -1 -0 1 -1 -2 3 -0 -2 -5 -3 -3 -4 -1 -1 5 4 1 2 5 6 4 4 -1 1 1 1 2 2 3 3 3 2 4 2 -1 1 -1 1 -2 -7 -11 -4
-2 4 1 -0 3 1 -2 -3 0 -2 -6 -5 -6 -4 1 -2 2 -1 10 12 13 9 2 4 8 0 4 -1 0 1 0 0 0 -0 -3 -2 -0 -1 -1 -1 1 -2 1 2
Height
3047 3040 3034 3030 3028 3026 3025 3023 3023 3023 3022 3023 3021 3021 3022 3024 3025 3025 3025 3025 3026 3027 3028 3029 3030 3032 3032 3034 3036 3038 3038 3041 3046 3049 3050 3052 3054 3057 3059 3061 3062 3061 3061 3061
3044 3036 3031 3027 3024 3022 3022 3023 3022 3022 3023 3023 3024 3024 3025 3026 3026 3026 3027 3027 3026 3027 3029 3031 3031 3031 3033 3035 3036 3037 3039 3042 3046 3050 3052 3051 3052 3054 3055 3058 3060 3059 3061 3063
3041 3035 3030 3025 3021 3021 3021 3023 3022 3023 3023 3023 3024 3025 3026 3027 3027 3026 3026 3027 3027 3028 3029 3029 3030 3031 3033 3034 3036 3037 3038 3039 3041 3043 3043 3045 3047 3049 3052 3054 3056 3056 3058 3059
3039 3033 3028 3023 3020 3019 3019 3019 3021 3021 3022 3024 3024 3025 3026 3027 3027 3026 3026 3026 3027 3030 3031 3031 3030 3031 3032 3034 3035 3035 3037 3038 3040 3041 3042 3043 3043 3045 3046 3047 3050 3053 3055 3056
3037 3031 3026 3022 3018 3018 3018 3018 3019 3020 3021 3023 3024 3025 3025 3026 3025 3026 3026 3026 3027 3028 3030 3031 3030 3030 3031 3032 3033 3034 3035 3037 3038 3039 3040 3041 3041 3041 3042 3042 3045 3048 3050 3051
3035 3030 3025 3021 3018 3017 3017 3017 3016 3018 3019 3021 3023 3023 3024 3024 3025 3025 3025 3026 3026 3027 3028 3028 3029 3030 3030 3031 3032 3032 3034 3035 3037 3039 3038 3038 3036 3032 3034 3036 3037 3041 3043 3047
3035 3031 3026 3021 3018 3017 3016 3017 3017 3017 3018 3020 3019 3021 3022 3023 3024 3024 3025 3025 3025 3027 3027 3028 3028 3029 3029 3029 3030 3031 3032 3034 3035 3035 3036 3038 3029 3029 3029 3030 3034 3036 3039 3042
3035 3030 3027 3023 3020 3017 3016 3016 3017 3016 3016 3017 3017 3018 3019 3021 3022 3024 3024 3025 3026 3026 3027 3028 3029 3029 3030 3029 3029 3030 3032 3033 3034 3035 3034 3029 3026 3026 3027 3027 3028 3029 3032 3037
3035 3030 3027 3024 3020 3018 3015 3013 3012 3014 3014 3013 3014 3016 3016 3017 3019 3022 3022 3024 3025 3026 3027 3028 3028 3028 3027 3028 3028 3028 3030 3033 3035 3035 3034 3029 3025 3025 3025 3025 3025 3024 3026 3031
3034 3029 3026 3024 3020 3017 3016 3014 3011 3010 3010 3011 3011 3012 3014 3014 3016 3018 3019 3021 3023 3025 3025 3026 3027 3027 3026 3026 3026 3026 3028 3030 3031 3033 3032 3025 3023 3023 3024 3026 3029 3023 3024 3029
3032 3029 3025 3022 3019 3015 3013 3010 3009 3007 3006 3006 3008 3008 3010 3012 3013 3014 3016 3020 3020 3022 3023 3024 3024 3024 3024 3024 3024 3023 3024 3026 3027 3029 3030 3024 3021 3022 3024 3024 3023 3025 3027 3030
3031 3028 3024 3020 3016 3012 3008 3006 3005 3003 3002 3002 3000 3003 3006 3008 3010 3012 3014 3016 3016 3018 3019 3021 3021 3020 3021 3021 3021 3020 3022 3020 3021 3022 3020 3020 3020 3020 3020 3022 3024 3025 3027 3029
3031 3026 3021 3017 3015 3011 3007 3003 3000 2997 2995 2996 2996 2996 2998 3002 3005 3007 3010 3012 3013 3014 3015 3016 3017 3017 3017 3017 3016 3017 3016 3017 3017 3019 3018 3017 3018 3018 3019 3020 3022 3024 3026 3027
3029 3025 3020 3016 3013 3009 3006 3003 2999 2996 2993 2991 2992 2991 2993 2995 2999 3002 3004 3005 3007 3008 3010 3010 3010 3011 3013 3012 3013 3012 3013 3013 3012 3012 3014 3014 3014 3015 3016 3018 3019 3021 3023 3024
3027 3023 3019 3016 3012 3008 3006 3002 3000 2998 2997 2993 2992 2990 2992 2994 2996 2998 3000 3001 3001 3001 3001 3000 2999 3001 3005 3004 3004 3001 3007 3006 3007 3009 3010 3010 3011 3012 3012 3015 3016 3018 3019 3020
3026 3022 3018 3015 3011 3008 3008 3004 3001 2997 2994 2992 2993 2995 2995 2996 2997 2997 2998 2998 2997 2995 2993 2990 2988 2993 2999 2994 2989 2994 3000 3002 3004 3005 3006 3007 3008 3009 3010 3010 3011 3012 3013 3013
3026 3023 3018 3014 3011 3008 3008 3006 3003 2998 2995 2994 2996 2997 2998 2997 2997 2997 2996 2994 2991 2988 2984 2979 2980 2982 2985 2981 2979 2988 2992 2994 2997 2998 3000 3002 3003 3004 3006 3005 3006 3006 3007 3007
3026 3024 3019 3014 3011 3008 3007 3004 3001 2999 2998 2997 2999 2999 2998 2997 2995 2992 2991 2989 2985 2982 2979 2974 2971 2972 2970 2966 2972 2979 2980 2987 2990 2993 2995 2996 2998 2999 3000 3000 3001 3001 3001 3001
3025 3022 3019 3014 3012 3007 3005 3004 3002 3000 3003 3001 3002 3001 2999 2996 2993 2990 2986 2983 2981 2978 2972 2967 2967 2965 2961 2961 2969 2973 2975 2980 2984 2988 2989 2991 2993 2994 2995 2995 2995 2995 2995 2994
3026 3023 3018 3014 3013 3009 3007 3004 3004 3002 3003 3004 3003 3001 2998 2997 2992 2988 2987 2982 2979 2975 2971 2968 2964 2956 2957 2961 2965 2971 2971 2977 2980 2983 2985 2986 2988 2989 2990 2990 2990 2989 2989 2988
3026 3023 3020 3016 3012 3011 3009 3009 3008 3007 3006 3005 3003 3001 2997 2996 2991 2989 2987 2983 2980 2977 2974 2970 2966 2962 2962 2964 2965 2966 2970 2973 2976 2979 2981 2983 2985 2985 2985 2984 2984 2983 2982 2981
3025 3024 3020 3017 3015 3014 3014 3013 3013 3011 3010 3007 3003 3001 2998 2994 2990 2988 2986 2983 2981 2977 2975 2971 2967 2964 2962 2960 2961 2964 2966 2970 2974 2977 2979 2980 2981 2981 2980 2979 2978 2976 2974 2972
3024 3023 3021 3019 3020 3018 3016 3015 3014 3013 3009 3005 3001 2998 2996 2994 2992 2988 2985 2982 2980 2977 2974 2972 2969 2967 2964 2962 2962 2964 2966 2969 2971 2973 2975 2977 2978 2978 2977 2975 2973 2970 2969 2969
3023 3021 3020 3021 3020 3019 3016 3015 3012 3010 3007 3004 3000 2996 2994 2992 2990 2987 2983 2981 2978 2975 2973 2973 2970 2967 2964 2963 2963 2963 2964 2966 2968 2970 2972 2974 2976 2976 2976 2974 2972 2970 2967 2967
3021 3020 3018 3017 3017 3016 3015 3013 3012 3010 3006 3002 2998 2994 2991 2989 2987 2985 2983 2979 2976 2975 2974 2972 2968 2966 2963 2962 2962 2962 2963 2964 2966 2967 2970 2973 2974 2975 2974 2973 2973 2970 2969 2968
3020 3016 3016 3015 3014 3013 3012 3010 3009 3007 3006 3002 2997 2993 2991 2989 2987 2984 2981 2979 2976 2975 2973 2971 2968 2966 2963 2962 2962 2962 2963 2964 2965 2967 2969 2970 2971 2972 2972 2972 2971 2969 2968 2967
3016 3014 3012 3012 3011 3009 3008 3007 3005 3003 3003 3001 2999 2996 2994 2991 2986 2983 2979 2977 2976 2972 2970 2968 2967 2964 2963 2962 2962 2961 2962 2963 2964 2965 2966 2967 2968 2969 2969 2969 2968 2967 2966 2964